Weather History for KN60 - January, 2013

Change the Weather History Date:

Thursday, January 10, 2013

  Actual Average Record
Temperature  
Mean Temperature 29 °F -  
Max Temperature 34 °F 15 °F 8 °F (2015)
Min Temperature 21 °F 0 °F -12 °F (2015)
Degree Days  
Heating Degree Days 36    
Moisture  
Dew Point 25 °F    
Average Humidity 85    
Maximum Humidity 92    
Minimum Humidity 78    
Precipitation  
Precipitation 0.00 in - - ()
Sea Level Pressure  
Sea Level Pressure 29.63 in    
Wind  
Wind Speed 7 mph (ESE)    
Max Wind Speed 18 mph    
Max Gust Speed 28 mph    
Averages and records for this station are not official NWS values.
T = Trace of Precipitation, MM = Missing Value Source: NWS Daily Summary

Daily Weather History Graph

Daily Weather History Graph

Search for Another Location

Airport or City:

Trip Planner

Search our weather history database for the weather conditions in past years. The results will help you decide how hot, cold, wet, or windy it might be!

Date:

Astronomy

Jan. 10, 2013 Rise Set
Actual Time 8:31 AM CST 5:15 PM CST
Civil Twilight 7:56 AM CST 5:50 PM CST
Nautical Twilight 7:18 AM CST 6:29 PM CST
Astronomical Twilight 6:41 AM CST 7:06 PM CST
Moon 7:13 AM CST (1/10) 4:26 PM CST (1/10)
Length of Visible Light 9h 53m
Length of Day
8h 43m
Waning Crescent, 2% of the Moon is Illuminated
Jan 10
Waning Crescent
Jan 11
New
Jan 18
First Quarter
Jan 26
Full
Feb 3
Last Quarter

Hourly Weather History & Observations

Time (CST) Temp. Windchill Dew Point Humidity Pressure Visibility Wind Dir Wind Speed Gust Speed Precip Events Conditions
12:52 AM 27.0 °F 21.6 °F 23.0 °F 85% 29.81 in - ESE 4.6 mph - N/A   Unknown
1:52 AM 30.0 °F 20.0 °F 26.1 °F 85% 29.78 in - South 12.7 mph - N/A   Unknown
2:52 AM 28.9 °F 21.1 °F 25.0 °F 85% 29.78 in - SSE 8.1 mph - N/A   Unknown
3:52 AM 26.1 °F 21.9 °F 23.0 °F 88% 29.75 in - South 3.5 mph - N/A   Unknown
4:52 AM 25.0 °F 19.3 °F 21.9 °F 88% 29.73 in - South 4.6 mph - N/A   Unknown
5:52 AM 27.0 °F 20.5 °F 24.1 °F 89% 29.70 in - South 5.8 mph - N/A   Unknown
6:52 AM 26.1 °F 21.9 °F 23.0 °F 88% 29.70 in - ESE 3.5 mph - N/A   Unknown
7:52 AM 28.0 °F 18.6 °F 24.1 °F 85% 29.68 in - South 10.4 mph - N/A   Unknown
8:52 AM 27.0 °F 23.0 °F 23.0 °F 85% 29.68 in - SSW 3.5 mph - N/A   Unknown
9:52 AM 27.0 °F - 23.0 °F 85% 29.66 in - Calm Calm - N/A   Unknown
10:52 AM 28.0 °F 24.2 °F 24.1 °F 85% 29.65 in - ESE 3.5 mph - N/A   Unknown
11:52 AM 30.9 °F 25.2 °F 26.1 °F 82% 29.63 in - SE 5.8 mph - N/A   Unknown
12:52 PM 33.1 °F 28.7 °F 27.0 °F 78% 29.60 in - SSE 4.6 mph - N/A   Unknown
1:52 PM 33.1 °F 27.7 °F 27.0 °F 78% 29.56 in - SE 5.8 mph - N/A   Unknown
2:52 PM 34.0 °F 29.8 °F 28.0 °F 79% 29.57 in - ESE 4.6 mph - N/A   Unknown
3:52 PM 33.1 °F 27.7 °F 28.0 °F 82% 29.56 in - East 5.8 mph - N/A   Unknown
4:52 PM 34.0 °F 31.0 °F 28.0 °F 79% 29.55 in - ENE 3.5 mph - N/A   Unknown
5:52 PM 32.0 °F 23.6 °F 26.1 °F 79% 29.54 in - ESE 10.4 mph - N/A   Unknown
6:52 PM 32.0 °F 26.4 °F 27.0 °F 82% 29.54 in - NE 5.8 mph - N/A   Unknown
7:52 PM 30.0 °F 21.1 °F 26.1 °F 85% 29.53 in - NNE 10.4 mph - N/A   Unknown
8:52 PM 27.0 °F 18.7 °F 25.0 °F 92% 29.54 in - North 8.1 mph 20.7 mph N/A   Unknown
9:52 PM 26.1 °F 14.0 °F 24.1 °F 92% 29.55 in - NNE 15.0 mph 25.3 mph N/A   Unknown
10:52 PM 24.1 °F 10.1 °F 21.9 °F 91% 29.55 in - NNE 18.4 mph 27.6 mph N/A   Unknown
11:52 PM 21.0 °F 7.6 °F 19.0 °F 92% 29.56 in - NNE 15.0 mph 26.5 mph N/A   Unknown